Simultaneous Nadir Overpasses (SNOs) Predictions

Prediction of SNOs between AQUA and NPP Satellite Orbit:

Table of predicted SNOs for the next 14.0 days since TLE Epoch: 12/23/2023
Index Date (AQUA) Time (AQUA) Lat,Lon (AQUA) SZA (AQUA ) Date (NPP) Time (NPP) Lat,Lon (NPP) SZA (NPP ) Distance(km) Time Diff (sec)
1 12/24/2023 00:38:07 -80.99, -93.32 67.89 12/24/2023 00:36:57 -80.99, -93.46 67.82 2.31 70
2 12/24/2023 01:27:28 81.04, 74.98 112.03 12/24/2023 01:27:39 81.04, 74.85 112.04 2.36 11
3 12/26/2023 14:22:14 81.02,-119.00 112.05 12/26/2023 14:21:38 81.02,-119.09 112.09 1.61 36
4 12/26/2023 15:11:36 -81.06, 49.32 68.05 12/26/2023 15:12:20 -81.07, 49.45 68.09 2.36 44
5 12/29/2023 04:06:20 -81.05,-144.42 68.10 12/29/2023 04:06:19 -81.05,-144.52 68.09 1.74 1
6 12/31/2023 17:01:03 -81.04, 21.70 68.19 12/31/2023 17:00:17 -81.04, 21.82 68.18 2.13 46
7 12/31/2023 17:50:24 81.08,-170.03 111.73 12/31/2023 17:50:59 81.08,-169.94 111.69 1.52 35
8 01/03/2024 06:45:05 81.05, -4.05 111.61 01/03/2024 06:44:57 81.05, -4.06 111.62 0.18 8
9 01/03/2024 07:34:28 -81.07, 163.91 68.44 01/03/2024 07:35:41 -81.07, 163.82 68.48 1.65 73
10 01/05/2024 19:39:45 81.04, 162.17 111.41 01/05/2024 19:38:55 81.04, 162.15 111.45 0.44 50



Historial Predications of SNOs between AQUA and NPP
